#timestamp,LO_Frequency,Hit,StdDev 
1695132015.5,286047004.4,N
1695132035.4,286047002.5,N
1695132055.2,286047001.4,N
1695132075.0,286047001.5,N
1695132075.9,286047001.5,N
1695132095.8,286047001.6,N
1695132115.6,286047002.0,N
1695132135.5,286047003.6,N
1695132155.3,286047002.1,N
1695132175.1,286047000.0,N
1695132195.9,286047002.3,N
1695132215.7,286047001.6,N
1695132235.5,286047003.6,N
1695132255.4,286047001.9,N
1695132275.2,286047002.2,N
1695132295.1,286046999.8,N
1695132296.0,286046999.8,N
1695132315.8,286047001.1,N
1695132335.6,286046996.6,N
1695132355.5,286047001.1,N
1695132375.3,286046999.2,N
1695132395.1,286046997.1,N
1695132415.9,286046997.5,N
1695132435.7,286046995.2,N
1695132455.6,286046993.4,N
1695132475.4,286046995.0,N
1695132495.2,286046995.1,N
1695132515.1,286046996.4,N
1695132516.0,286046996.4,N
1695132535.8,286046995.9,N
1695132555.6,286046994.7,N
1695132575.5,286046994.1,N
1695132595.3,286046993.3,N
1695132615.1,286046993.7,N
1695132635.9,286046993.3,N
1695132655.7,286046994.8,N
1695132675.6,286046991.9,N
1695132695.4,286046996.0,N
1695132715.2,286046993.4,N
1695132735.1,286046991.8,N
1695132736.0,286046991.8,N
1695132755.8,286046992.9,N
1695132775.7,286046990.3,N
1695132795.5,286046991.3,N
1695132815.3,286046990.3,Y
1695132835.2,286046996.0,P
1695132855.0,286046998.0,P
1695132855.9,286046998.0,N
1695132875.7,286046997.0,N
1695132895.6,286046994.9,Y
1695132915.4,286046997.8,P
1695132935.3,286046997.8,P
1695132955.1,286046997.1,P
1695132975.8,286046999.6,N
1695132995.7,286046997.5,N
1695133015.5,286046995.1,Y
1695133035.4,286046998.8,P
1695133055.2,286046999.0,N
1695133075.0,286046996.6,P
1695133075.9,286046996.6,Y
1695133095.8,286046998.6,P
1695133115.6,286046998.4,P
1695133135.5,286047000.6,N
1695133155.3,286047001.9,N
1695133175.1,286047002.7,N
1695133195.9,286046999.7,N
1695133215.7,286047004.2,N
1695133235.6,286047005.7,N
1695133255.4,286047005.6,N
1695133275.2,286047003.7,N
1695133295.1,286047003.8,N
1695133296.0,286047003.8,N
1695133315.8,286047000.2,N
1695133335.6,286047002.4,N
1695133355.5,286047000.4,N
1695133375.3,286047000.3,N
1695133395.2,286047002.7,N
1695133415.9,286047000.4,N
1695133435.7,286046999.8,N
1695133455.6,286047002.2,N
1695133475.4,286047001.7,N
1695133495.3,286047003.2,N
1695133515.1,286047005.2,N
1695133516.0,286047005.2,N
1695133535.8,286047007.1,Y
1695133555.7,286047001.3,P
1695133575.5,286047001.8,P
1695133595.3,286047004.0,P
1695133615.2,286047003.0,N
1695133635.0,286047003.5,Y
1695133635.9,286047003.5,P
1695133655.8,286047002.8,P
1695133675.6,286047002.8,P
1695133695.4,286047000.6,N
1695133715.3,286047000.5,N
1695133735.1,286047001.1,N
1695133755.8,286046996.7,N
1695133775.7,286046996.6,N
1695133795.5,286046999.4,N
1695133815.4,286046995.2,N
1695133835.2,286046998.9,N
1695133855.0,286046999.5,N
1695133855.9,286046999.5,N
1695133875.8,286046999.2,N
1695133895.6,286046999.0,N
1695133915.4,286046996.9,N
1695133935.3,286046996.5,N
1695133955.1,286046999.6,N
1695133975.9,286046996.8,N
1695133995.7,286046996.5,N
1695134015.5,286046996.8,N
1695134035.4,286046999.2,N
1695134055.2,286046999.4,N
1695134075.0,286046997.1,N
1695134075.9,286046997.1,N
1695134095.8,286047001.1,N
1695134115.6,286047000.4,N
1695134135.5,286046999.9,N
1695134155.3,286047000.2,N
1695134175.1,286047000.5,N
1695134195.9,286047000.4,N
1695134215.7,286047001.2,N
1695134235.5,286046998.3,N
1695134255.4,286046999.6,N
1695134275.2,286046998.9,N
1695134295.1,286046998.5,N
1695134296.0,286046998.5,N
1695134315.8,286046998.4,N
1695134335.6,286046998.2,N
1695134355.5,286047000.6,N
1695134375.3,286047000.1,N
1695134395.2,286047001.4,N
1695134415.9,286047004.0,N
1695134435.7,286047001.6,N
1695134455.6,286046999.9,N
1695134475.4,286047002.5,N
1695134495.2,286047000.2,N
1695134515.1,286047000.1,N
1695134516.0,286047000.1,N
1695134535.8,286047002.2,N
1695134555.7,286047001.6,N
1695134575.5,286047001.9,N
1695134595.3,286047002.6,N
1695134615.2,286046999.8,N
1695134635.0,286047009.1,Y
1695134635.9,286047009.1,P
1695134655.8,286047000.2,N
1695134675.6,286047002.8,N
1695134695.4,286047000.0,N
1695134715.3,286047002.3,N
1695134735.1,286047002.0,N
1695134755.9,286047001.7,N
1695134775.7,286047002.2,N
1695134795.5,286047002.5,N
1695134815.4,286047001.0,N
1695134835.2,286047002.0,N
1695134855.0,286047001.7,N
1695134855.9,286047001.7,N
1695134875.8,286047001.9,N
1695134895.6,286047001.3,N
1695134915.5,286047003.8,N
1695134935.3,286047005.9,N
1695134955.1,286047003.6,N
1695134975.9,286047001.6,N
1695134995.7,286047003.1,N
1695135015.6,286047003.2,N
1695135035.4,286047007.1,Y
1695135055.2,286047000.1,P
1695135075.1,286047002.0,N
1695135076.0,286047002.0,N
1695135095.8,286047004.0,Y
1695135115.6,286046999.7,P
1695135135.5,286047002.3,N
1695135155.3,286047002.4,N
1695135175.2,286047002.2,N
1695135195.9,286047002.0,N
1695135215.7,286047001.4,N
1695135235.6,286047004.3,Y
1695135255.4,286047000.2,P
1695135275.3,286046999.8,N
1695135295.1,286047002.6,P
1695135296.0,286047002.6,N
1695135315.8,286046999.7,N
1695135335.7,286047001.8,N
1695135355.5,286047004.0,Y
1695135375.4,286047001.7,P
1695135395.2,286047002.5,P
1695135415.0,286047000.1,N
1695135415.9,286047000.1,N
1695135435.8,286046999.8,N
1695135455.6,286047000.2,N
1695135475.4,286047002.7,N
1695135495.3,286047002.4,N
1695135515.1,286047000.9,N
1695135535.9,286047000.8,N
1695135555.7,286047001.0,N
1695135575.5,286047000.6,N
1695135595.4,286047000.4,N
